| time (UTC) | temp C | wind direction | speed KPH | gust KPH | rain 1hr cm | rain 24hr cm | rain mn cm | humidity % | barometer mb |
| 20260506051007 | 18 | 360 | 1.6 | 11.3 | 0.00 | 0.64 | 0.41 | 42 | 1014.1 |
| 20260506050503 | 18 | 11 | 3.2 | 11.3 | 0.00 | 0.64 | 0.41 | 44 | 1014.1 |
| 20260506045005 | 18 | 360 | 1.6 | 16.1 | 0.00 | 0.66 | 0.41 | 48 | 1013.9 |
| 20260506044527 | 18 | 360 | 6.4 | 17.7 | 0.00 | 0.66 | 0.41 | 47 | 1013.8 |
| 20260506044007 | 18 | 360 | 8.0 | 17.7 | 0.00 | 0.69 | 0.41 | 46 | 1013.7 |
| 20260506043508 | 19 | 360 | 3.2 | 17.7 | 0.00 | 0.69 | 0.41 | 43 | 1013.7 |
| 20260506043008 | 18 | 360 | 9.7 | 17.7 | 0.00 | 0.69 | 0.41 | 42 | 1013.7 |
| 20260506042508 | 19 | 360 | 6.4 | 16.1 | 0.00 | 0.69 | 0.41 | 47 | 1013.7 |
| 20260506042007 | 19 | 11 | 4.8 | 16.1 | 0.00 | 0.69 | 0.41 | 47 | 1013.6 |
| 20260506041505 | 19 | 360 | 9.7 | 16.1 | 0.00 | 0.71 | 0.41 | 47 | 1013.6 |
| 20260506041009 | 19 | 360 | 8.0 | 17.7 | 0.00 | 0.71 | 0.41 | 47 | 1013.5 |
| 20260506040503 | 19 | 360 | 6.4 | 17.7 | 0.00 | 0.71 | 0.41 | 47 | 1013.4 |
| 20260506040006 | 18 | 360 | 4.8 | 12.9 | 0.00 | 0.74 | 0.41 | 46 | 1013.2 |
| 20260506035507 | 18 | 360 | 6.4 | 11.3 | 0.00 | 0.74 | 0.41 | 46 | 1013.1 |
| 20260506035002 | 19 | 360 | 1.6 | 6.4 | 0.00 | 0.74 | 0.41 | 44 | 1012.9 |
| 20260506034508 | 19 | 360 | 0.0 | 4.8 | 0.00 | 0.74 | 0.41 | 43 | 1012.8 |
| 20260506034011 | 19 | 360 | 0.0 | 6.4 | 0.00 | 0.74 | 0.41 | 41 | 1012.7 |
| 20260506033504 | 19 | 360 | 0.0 | 6.4 | 0.00 | 0.74 | 0.41 | 41 | 1012.6 |
| 20260506033006 | 19 | 360 | 0.0 | 6.4 | 0.00 | 0.74 | 0.41 | 40 | 1012.5 |
| 20260506032508 | 19 | 360 | 0.0 | 6.4 | 0.00 | 0.74 | 0.41 | 39 | 1012.4 |
| 20260506032004 | 20 | 360 | 1.6 | 6.4 | 0.00 | 0.74 | 0.41 | 39 | 1012.3 |
| 20260506031506 | 20 | 360 | 1.6 | 8.0 | 0.00 | 0.74 | 0.41 | 38 | 1012.2 |
| 20260506031007 | 20 | 360 | 3.2 | 8.0 | 0.00 | 0.74 | 0.41 | 38 | 1012.2 |
| 20260506030508 | 20 | 360 | 3.2 | 8.0 | 0.00 | 0.74 | 0.41 | 37 | 1012.1 |
| 20260506030004 | 20 | 360 | 4.8 | 8.0 | 0.00 | 0.74 | 0.41 | 37 | 1012.0 |
| 20260506025507 | 20 | 360 | 1.6 | 11.3 | 0.00 | 0.74 | 0.41 | 37 | 1012.0 |
| 20260506025007 | 20 | 360 | 3.2 | 14.5 | 0.00 | 0.74 | 0.41 | 36 | 1011.9 |
| 20260506024506 | 20 | 360 | 4.8 | 14.5 | 0.00 | 0.74 | 0.41 | 36 | 1012.0 |
| 20260506024010 | 20 | 360 | 4.8 | 14.5 | 0.00 | 0.74 | 0.41 | 35 | 1011.9 |
| 20260506023504 | 20 | 360 | 8.0 | 14.5 | 0.00 | 0.74 | 0.41 | 35 | 1011.8 |
| 20260506023030 | 20 | 360 | 3.2 | 12.9 | 0.00 | 0.74 | 0.41 | 35 | 1011.7 |
| 20260506022508 | 20 | 11 | 3.2 | 17.7 | 0.00 | 0.74 | 0.41 | 34 | 1011.6 |
| 20260506022003 | 20 | 8 | 8.0 | 17.7 | 0.00 | 0.74 | 0.41 | 33 | 1011.5 |
| 20260506021532 | 21 | 360 | 0.0 | 17.7 | 0.00 | 0.74 | 0.41 | 33 | 1011.4 |
| 20260506021008 | 21 | 360 | 8.0 | 22.5 | 0.00 | 0.74 | 0.41 | 32 | 1011.3 |
| 20260506020503 | 21 | 360 | 6.4 | 22.5 | 0.00 | 0.74 | 0.41 | 31 | 1011.2 |
| 20260506020031 | 21 | 9 | 6.4 | 17.7 | 0.00 | 0.74 | 0.41 | 31 | 1011.2 |
| 20260506015507 | 21 | 10 | 9.7 | 19.3 | 0.00 | 0.74 | 0.41 | 30 | 1011.0 |
| 20260506015012 | 21 | 360 | 9.7 | 19.3 | 0.00 | 0.74 | 0.41 | 30 | 1011.0 |
| 20260506014525 | 21 | 11 | 9.7 | 19.3 | 0.00 | 0.74 | 0.41 | 30 | 1011.0 |
| 20260506014007 | 21 | 8 | 11.3 | 20.9 | 0.00 | 0.74 | 0.41 | 29 | 1011.0 |
| 20260506013504 | 22 | 7 | 8.0 | 20.9 | 0.00 | 0.74 | 0.41 | 31 | 1010.9 |
| 20260506013026 | 21 | 8 | 11.3 | 22.5 | 0.00 | 0.74 | 0.41 | 31 | 1010.8 |
| 20260506012507 | 22 | 8 | 8.0 | 22.5 | 0.00 | 0.74 | 0.41 | 32 | 1010.9 |
| 20260506012004 | 22 | 9 | 8.0 | 20.9 | 0.00 | 0.74 | 0.41 | 32 | 1010.9 |
| 20260506011523 | 22 | 8 | 11.3 | 20.9 | 0.00 | 0.74 | 0.41 | 32 | 1010.9 |
| 20260506011010 | 22 | 11 | 9.7 | 24.1 | 0.00 | 0.74 | 0.41 | 31 | 1010.9 |
| 20260506010508 | 22 | 8 | 9.7 | 27.4 | 0.00 | 0.74 | 0.41 | 31 | 1010.9 |
| 20260506010043 | 23 | 8 | 14.5 | 27.4 | 0.00 | 0.74 | 0.41 | 31 | 1010.8 |
| 20260506005508 | 23 | 8 | 8.0 | 20.9 | 0.00 | 0.74 | 0.41 | 31 | 1010.7 |
| 20260506005004 | 23 | 7 | 9.7 | 22.5 | 0.00 | 0.74 | 0.41 | 30 | 1010.7 |
| 20260506004527 | 23 | 9 | 11.3 | 22.5 | 0.00 | 0.74 | 0.41 | 30 | 1010.6 |
| 20260506004007 | 23 | 360 | 9.7 | 20.9 | 0.00 | 0.74 | 0.41 | 29 | 1010.5 |
| 20260506003504 | 23 | 8 | 9.7 | 20.9 | 0.00 | 0.74 | 0.41 | 28 | 1010.5 |
| 20260506003026 | 23 | 7 | 8.0 | 22.5 | 0.00 | 0.74 | 0.41 | 28 | 1010.4 |
| 20260506002507 | 23 | 8 | 9.7 | 22.5 | 0.00 | 0.74 | 0.41 | 27 | 1010.4 |
| 20260506002004 | 23 | 360 | 9.7 | 22.5 | 0.00 | 0.74 | 0.41 | 28 | 1010.3 |
| 20260506001524 | 24 | 9 | 11.3 | 22.5 | 0.00 | 0.74 | 0.41 | 27 | 1010.3 |
| 20260506001009 | 23 | 360 | 6.4 | 20.9 | 0.00 | 0.74 | 0.41 | 28 | 1010.3 |
| 20260506000508 | 23 | 8 | 11.3 | 20.9 | 0.00 | 0.74 | 0.41 | 28 | 1010.3 |
| 20260506000027 | 24 | 8 | 8.0 | 17.7 | 0.00 | 0.74 | 0.41 | 27 | 1010.3 |
| 20260505235508 | 25 | 7 | 9.7 | 17.7 | 0.00 | 0.74 | 0.41 | 25 | 1010.3 |
| 20260505235004 | 25 | 360 | 6.4 | 14.5 | 0.00 | 0.74 | 0.41 | 26 | 1010.2 |
| 20260505234536 | 24 | 11 | 6.4 | 19.3 | 0.00 | 0.74 | 0.41 | 26 | 1010.1 |
| 20260505234007 | 25 | 360 | 6.4 | 20.9 | 0.00 | 0.74 | 0.41 | 25 | 1010.1 |
| 20260505233503 | 25 | 360 | 11.3 | 20.9 | 0.00 | 0.74 | 0.41 | 25 | 1010.0 |
| 20260505233034 | 24 | 360 | 6.4 | 19.3 | 0.00 | 0.74 | 0.41 | 27 | 1010.0 |
| 20260505232508 | 23 | 360 | 6.4 | 19.3 | 0.00 | 0.74 | 0.41 | 27 | 1010.0 |
| 20260505232003 | 23 | 360 | 6.4 | 19.3 | 0.00 | 0.74 | 0.41 | 26 | 1010.0 |
| 20260505231530 | 24 | 360 | 6.4 | 22.5 | 0.00 | 0.74 | 0.41 | 27 | 1010.0 |
| 20260505231006 | 24 | 360 | 11.3 | 22.5 | 0.00 | 0.74 | 0.41 | 26 | 1010.1 |
| 20260505230504 | 25 | 360 | 9.7 | 27.4 | 0.00 | 0.74 | 0.41 | 24 | 1010.0 |
| 20260505230024 | 25 | 11 | 12.9 | 27.4 | 0.00 | 0.74 | 0.41 | 25 | 1010.0 |
| 20260505225510 | 25 | 8 | 11.3 | 24.1 | 0.00 | 0.74 | 0.41 | 25 | 1010.0 |
| 20260505225006 | 25 | 360 | 12.9 | 24.1 | 0.00 | 0.74 | 0.41 | 25 | 1010.0 |
| 20260505224530 | 25 | 360 | 11.3 | 24.1 | 0.00 | 0.74 | 0.41 | 27 | 1010.0 |
| 20260505224009 | 26 | 360 | 9.7 | 19.3 | 0.00 | 0.74 | 0.41 | 28 | 1010.2 |
| 20260505223512 | 25 | 11 | 4.8 | 19.3 | 0.00 | 0.74 | 0.41 | 30 | 1010.2 |
| 20260505223025 | 25 | 360 | 6.4 | 19.3 | 0.00 | 0.74 | 0.41 | 30 | 1010.2 |
| 20260505222507 | 25 | 360 | 9.7 | 19.3 | 0.00 | 0.74 | 0.41 | 29 | 1010.3 |
| 20260505222006 | 25 | 360 | 6.4 | 22.5 | 0.00 | 0.74 | 0.41 | 29 | 1010.3 |
| 20260505221524 | 25 | 360 | 4.8 | 22.5 | 0.00 | 0.74 | 0.41 | 29 | 1010.4 |
| 20260505221013 | 25 | 9 | 8.0 | 17.7 | 0.00 | 0.74 | 0.41 | 31 | 1010.4 |
| 20260505220504 | 25 | 11 | 8.0 | 17.7 | 0.00 | 0.74 | 0.41 | 30 | 1010.4 |
| 20260505220027 | 25 | 360 | 6.4 | 19.3 | 0.00 | 0.74 | 0.41 | 30 | 1010.4 |
| 20260505215505 | 25 | 360 | 11.3 | 19.3 | 0.00 | 0.74 | 0.41 | 30 | 1010.7 |
| 20260505215005 | 25 | 15 | 8.0 | 17.7 | 0.00 | 0.74 | 0.41 | 29 | 1010.7 |
| 20260505214552 | 25 | 17 | 9.7 | 25.7 | 0.00 | 0.74 | 0.41 | 30 | 1010.8 |
| 20260505214008 | 24 | 12 | 11.3 | 25.7 | 0.00 | 0.74 | 0.41 | 32 | 1010.8 |
| 20260505213507 | 23 | 360 | 12.9 | 25.7 | 0.00 | 0.74 | 0.41 | 33 | 1010.8 |
| 20260505213026 | 23 | 360 | 8.0 | 24.1 | 0.00 | 0.74 | 0.41 | 35 | 1010.8 |
| 20260505212508 | 24 | 360 | 6.4 | 24.1 | 0.00 | 0.74 | 0.41 | 36 | 1010.9 |
| 20260505212006 | 25 | 360 | 11.3 | 24.1 | 0.00 | 0.74 | 0.41 | 31 | 1010.8 |
| 20260505211524 | 24 | 360 | 11.3 | 24.1 | 0.00 | 0.74 | 0.41 | 29 | 1011.0 |
| 20260505211008 | 24 | 360 | 9.7 | 24.1 | 0.00 | 0.74 | 0.41 | 30 | 1011.1 |
| 20260505210510 | 23 | 360 | 12.9 | 27.4 | 0.00 | 0.74 | 0.41 | 31 | 1011.0 |
| 20260505210025 | 24 | 13 | 12.9 | 27.4 | 0.00 | 0.74 | 0.41 | 29 | 1011.3 |
| 20260505205509 | 24 | 12 | 12.9 | 32.2 | 0.00 | 0.74 | 0.41 | 31 | 1011.2 |
| 20260505205010 | 23 | 360 | 14.5 | 32.2 | 0.00 | 0.74 | 0.41 | 30 | 1011.3 |
| 20260505204528 | 23 | 360 | 16.1 | 30.6 | 0.00 | 0.74 | 0.41 | 29 | 1011.2 |
| 20260505204015 | 24 | 360 | 12.9 | 27.4 | 0.00 | 0.74 | 0.41 | 31 | 1011.2 |
| 20260505203508 | 24 | 360 | 12.9 | 27.4 | 0.00 | 0.74 | 0.41 | 29 | 1011.1 |
| 20260505203034 | 24 | 360 | 9.7 | 25.7 | 0.00 | 0.74 | 0.41 | 28 | 1011.2 |
| 20260505202509 | 23 | 10 | 12.9 | 29.0 | 0.00 | 0.74 | 0.41 | 31 | 1011.3 |
| 20260505202013 | 23 | 360 | 17.7 | 38.6 | 0.00 | 0.74 | 0.41 | 30 | 1011.2 |
| 20260505201530 | 23 | 360 | 17.7 | 38.6 | 0.00 | 0.74 | 0.41 | 29 | 1011.3 |
| 20260505201008 | 23 | 360 | 17.7 | 30.6 | 0.00 | 0.74 | 0.41 | 29 | 1011.3 |
| 20260505200509 | 23 | 360 | 16.1 | 27.4 | 0.00 | 0.74 | 0.41 | 29 | 1011.4 |
| 20260505200025 | 23 | 360 | 19.3 | 33.8 | 0.00 | 0.74 | 0.41 | 33 | 1011.5 |
| 20260505195513 | 23 | 8 | 14.5 | 33.8 | 0.00 | 0.74 | 0.41 | 35 | 1011.5 |
| 20260505195010 | 23 | 8 | 16.1 | 32.2 | 0.00 | 0.74 | 0.41 | 35 | 1011.5 |
| 20260505194523 | 23 | 9 | 14.5 | 30.6 | 0.00 | 0.74 | 0.41 | 36 | 1011.5 |
| 20260505194007 | 23 | 10 | 17.7 | 30.6 | 0.00 | 0.74 | 0.41 | 39 | 1011.5 |
| 20260505193510 | 23 | 11 | 16.1 | 30.6 | 0.00 | 0.74 | 0.41 | 40 | 1011.5 |
| 20260505193010 | 23 | 10 | 11.3 | 20.9 | 0.00 | 0.74 | 0.41 | 44 | 1011.7 |
| 20260505192508 | 21 | 9 | 8.0 | 20.9 | 0.00 | 0.74 | 0.41 | 49 | 1011.8 |
| 20260505192006 | 21 | 9 | 3.2 | 9.7 | 0.00 | 0.74 | 0.41 | 54 | 1011.9 |
| 20260505191508 | 21 | 8 | 1.6 | 4.8 | 0.00 | 0.74 | 0.41 | 53 | 1011.8 |
| 20260505191011 | 21 | 9 | 0.0 | 3.2 | 0.00 | 0.74 | 0.41 | 56 | 1012.0 |
| 20260505190502 | 20 | 10 | 0.0 | 6.4 | 0.00 | 0.74 | 0.41 | 54 | 1012.0 |
| 20260505190006 | 20 | 360 | 1.6 | 8.0 | 0.00 | 0.74 | 0.41 | 56 | 1012.1 |
| 20260505185510 | 20 | 11 | 3.2 | 8.0 | 0.00 | 0.74 | 0.41 | 54 | 1012.1 |
| 20260505185004 | 20 | 8 | 1.6 | 8.0 | 0.00 | 0.74 | 0.41 | 55 | 1012.3 |
| 20260505184506 | 21 | 8 | 1.6 | 8.0 | 0.00 | 0.74 | 0.41 | 53 | 1012.3 |
| 20260505184009 | 21 | 360 | 1.6 | 8.0 | 0.00 | 0.74 | 0.41 | 54 | 1012.3 |
| 20260505183504 | 20 | 12 | 3.2 | 8.0 | 0.00 | 0.74 | 0.41 | 55 | 1012.5 |
| 20260505183010 | 20 | 8 | 1.6 | 8.0 | 0.00 | 0.74 | 0.41 | 55 | 1012.5 |
| 20260505182512 | 20 | 360 | 1.6 | 9.7 | 0.00 | 0.74 | 0.41 | 56 | 1012.7 |
| 20260505182007 | 20 | 11 | 3.2 | 9.7 | 0.00 | 0.74 | 0.41 | 58 | 1012.8 |
| 20260505181506 | 20 | 360 | 3.2 | 6.4 | 0.00 | 0.74 | 0.41 | 57 | 1012.9 |
| 20260505181009 | 21 | 360 | 0.0 | 4.8 | 0.00 | 0.74 | 0.41 | 57 | 1013.0 |
| 20260505180505 | 20 | 360 | 0.0 | 4.8 | 0.00 | 0.74 | 0.41 | 57 | 1013.0 |
| 20260505180007 | 20 | 360 | 0.0 | 6.4 | 0.00 | 0.74 | 0.41 | 59 | 1013.1 |
| 20260505175509 | 20 | 360 | 1.6 | 6.4 | 0.00 | 0.74 | 0.41 | 57 | 1013.2 |
| 20260505175003 | 20 | 360 | 1.6 | 8.0 | 0.00 | 0.74 | 0.41 | 61 | 1013.2 |
| 20260505174510 | 19 | 360 | 3.2 | 8.0 | 0.00 | 0.74 | 0.41 | 61 | 1013.2 |
| 20260505174009 | 19 | 360 | 0.0 | 6.4 | 0.00 | 0.74 | 0.41 | 63 | 1013.2 |
| 20260505173503 | 19 | 360 | 3.2 | 6.4 | 0.00 | 0.74 | 0.41 | 64 | 1013.3 |
| 20260505173004 | 19 | 360 | 1.6 | 6.4 | 0.00 | 0.74 | 0.41 | 65 | 1013.2 |
| 20260505172507 | 18 | 8 | 1.6 | 8.0 | 0.00 | 0.74 | 0.41 | 67 | 1013.2 |
| 20260505172008 | 18 | 360 | 3.2 | 8.0 | 0.00 | 0.74 | 0.41 | 68 | 1013.2 |
| 20260505171504 | 19 | 10 | 1.6 | 6.4 | 0.00 | 0.74 | 0.41 | 67 | 1013.2 |
| 20260505171011 | 19 | 360 | 1.6 | 3.2 | 0.00 | 0.74 | 0.41 | 68 | 1013.2 |
| 20260505170505 | 18 | 9 | 0.0 | 3.2 | 0.00 | 0.74 | 0.41 | 68 | 1013.1 |
| 20260505170006 | 18 | 360 | 0.0 | 3.2 | 0.00 | 0.74 | 0.41 | 70 | 1013.1 |
| 20260505165509 | 18 | 360 | 0.0 | 3.2 | 0.00 | 0.74 | 0.41 | 69 | 1013.2 |
| 20260505165006 | 18 | 11 | 0.0 | 6.4 | 0.00 | 0.74 | 0.41 | 70 | 1013.1 |
| 20260505164505 | 18 | 360 | 0.0 | 6.4 | 0.00 | 0.74 | 0.41 | 71 | 1013.1 |
| 20260505164008 | 18 | 360 | 0.0 | 6.4 | 0.00 | 0.74 | 0.41 | 71 | 1013.1 |
| 20260505163505 | 18 | 360 | 1.6 | 4.8 | 0.00 | 0.74 | 0.41 | 72 | 1013.1 |
| 20260505163004 | 18 | 360 | 0.0 | 3.2 | 0.00 | 0.74 | 0.41 | 73 | 1013.0 |
| 20260505162508 | 17 | 360 | 0.0 | 3.2 | 0.00 | 0.74 | 0.41 | 73 | 1013.2 |
| 20260505162008 | 17 | 360 | 0.0 | 3.2 | 0.00 | 0.74 | 0.41 | 75 | 1013.2 |
| 20260505161505 | 17 | 360 | 0.0 | 0.0 | 0.00 | 0.74 | 0.41 | 76 | 1013.2 |
| 20260505161005 | 17 | 360 | 0.0 | 4.8 | 0.00 | 0.74 | 0.41 | 76 | 1013.3 |
| 20260505160505 | 17 | 360 | 0.0 | 4.8 | 0.00 | 0.74 | 0.41 | 76 | 1013.3 |
| 20260505153006 | 16 | 360 | 1.6 | 4.8 | 0.00 | 0.74 | 0.41 | 85 | 1013.0 |
| 20260505152508 | 16 | 360 | 0.0 | 4.8 | 0.00 | 0.74 | 0.41 | 86 | 1013.0 |
| 20260505152007 | 16 | 360 | 0.0 | 4.8 | 0.00 | 0.74 | 0.41 | 88 | 1013.0 |
| 20260505151512 | 16 | 360 | 0.0 | 4.8 | 0.00 | 0.74 | 0.41 | 88 | 1013.0 |
| 20260505151009 | 16 | 360 | 1.6 | 8.0 | 0.00 | 0.74 | 0.41 | 89 | 1012.9 |
| 20260505150510 | 16 | 360 | 3.2 | 8.0 | 0.00 | 0.74 | 0.41 | 89 | 1013.0 |
| 20260505140504 | 15 | 360 | 0.0 | 0.0 | 0.00 | 0.74 | 0.41 | 91 | 1012.6 |
| 20260505125004 | 14 | 360 | 0.0 | 4.8 | 0.00 | 0.74 | 0.41 | 91 | 1011.9 |
| 20260505124527 | 14 | 360 | 0.0 | 4.8 | 0.03 | 0.74 | 0.41 | 91 | 1011.8 |
| 20260505124007 | 14 | 360 | 1.6 | 4.8 | 0.05 | 0.74 | 0.41 | 91 | 1011.7 |
| 20260505123507 | 14 | 360 | 0.0 | 6.4 | 0.05 | 0.74 | 0.41 | 91 | 1011.7 |
| 20260505123025 | 15 | 360 | 1.6 | 6.4 | 0.05 | 0.74 | 0.41 | 91 | 1011.7 |
| 20260505122507 | 15 | 360 | 1.6 | 4.8 | 0.05 | 0.74 | 0.41 | 91 | 1011.6 |
| 20260505122004 | 15 | 360 | 0.0 | 3.2 | 0.05 | 0.74 | 0.41 | 91 | 1011.7 |
| 20260505121526 | 14 | 360 | 0.0 | 3.2 | 0.05 | 0.74 | 0.41 | 91 | 1011.8 |
| 20260505121009 | 14 | 360 | 0.0 | 4.8 | 0.05 | 0.74 | 0.41 | 91 | 1011.7 |
| 20260505120504 | 14 | 360 | 1.6 | 4.8 | 0.05 | 0.74 | 0.41 | 91 | 1011.4 |
| 20260505120031 | 14 | 360 | 1.6 | 4.8 | 0.05 | 0.74 | 0.41 | 91 | 1011.5 |
| 20260505115509 | 14 | 360 | 0.0 | 4.8 | 0.05 | 0.74 | 0.41 | 91 | 1011.6 |
| 20260505115005 | 14 | 360 | 0.0 | 4.8 | 0.05 | 0.74 | 0.41 | 91 | 1011.5 |
| 20260505114526 | 14 | 360 | 0.0 | 6.4 | 0.03 | 0.71 | 0.38 | 91 | 1011.4 |
| 20260505114010 | 14 | 360 | 1.6 | 6.4 | 0.03 | 0.69 | 0.36 | 91 | 1011.3 |
| 20260505113506 | 14 | 360 | 0.0 | 9.7 | 0.03 | 0.69 | 0.36 | 91 | 1011.5 |
| 20260505113027 | 14 | 360 | 4.8 | 9.7 | 0.03 | 0.69 | 0.36 | 91 | 1011.6 |
| 20260505112507 | 14 | 360 | 0.0 | 6.4 | 0.03 | 0.69 | 0.36 | 91 | 1011.9 |
| 20260505112004 | 14 | 360 | 3.2 | 6.4 | 0.03 | 0.69 | 0.36 | 91 | 1011.8 |
| 20260505111528 | 14 | 360 | 1.6 | 8.0 | 0.03 | 0.69 | 0.36 | 91 | 1011.8 |
| 20260505111010 | 14 | 360 | 1.6 | 8.0 | 0.05 | 0.69 | 0.36 | 91 | 1011.7 |
| 20260505110503 | 14 | 360 | 1.6 | 6.4 | 0.08 | 0.69 | 0.36 | 91 | 1011.7 |
| 20260505102001 | 14 | 360 | 6.4 | 12.9 | 0.10 | 0.66 | 0.33 | 91 | 1012.2 |
| 20260505101515 | 14 | 360 | 6.4 | 12.9 | 0.10 | 0.66 | 0.33 | 91 | 1012.5 |
| 20260505101002 | 14 | 360 | 3.2 | 17.7 | 0.08 | 0.64 | 0.30 | 91 | 1012.9 |
| 20260505100505 | 14 | 360 | 4.8 | 17.7 | 0.08 | 0.61 | 0.28 | 91 | 1013.0 |
| 20260505100013 | 14 | 360 | 6.4 | 16.1 | 0.08 | 0.61 | 0.28 | 91 | 1012.8 |
| 20260505095507 | 14 | 360 | 8.0 | 16.1 | 0.08 | 0.61 | 0.28 | 91 | 1012.7 |
| 20260505095005 | 14 | 360 | 4.8 | 14.5 | 0.08 | 0.61 | 0.28 | 91 | 1012.9 |
| 20260505094504 | 14 | 360 | 4.8 | 14.5 | 0.08 | 0.61 | 0.28 | 91 | 1013.0 |
| 20260505094004 | 14 | 55 | 4.8 | 20.9 | 0.08 | 0.61 | 0.28 | 91 | 1012.9 |
| 20260505093502 | 14 | 360 | 9.7 | 20.9 | 0.08 | 0.61 | 0.28 | 91 | 1012.9 |
| 20260505093017 | 14 | 360 | 4.8 | 19.3 | 0.08 | 0.61 | 0.28 | 91 | 1013.2 |
| 20260505092502 | 15 | 360 | 8.0 | 19.3 | 0.08 | 0.58 | 0.25 | 91 | 1013.3 |
| 20260505092004 | 15 | 360 | 6.4 | 20.9 | 0.05 | 0.56 | 0.23 | 91 | 1013.2 |
| 20260505091505 | 15 | 360 | 9.7 | 20.9 | 0.05 | 0.56 | 0.23 | 90 | 1013.2 |
| 20260505091006 | 15 | 360 | 8.0 | 20.9 | 0.08 | 0.56 | 0.23 | 91 | 1013.2 |
| 20260505090505 | 15 | 360 | 9.7 | 20.9 | 0.05 | 0.53 | 0.20 | 90 | 1013.1 |
| 20260505090006 | 15 | 360 | 8.0 | 17.7 | 0.05 | 0.53 | 0.20 | 90 | 1013.0 |
| 20260505085508 | 15 | 360 | 6.4 | 19.3 | 0.08 | 0.53 | 0.20 | 90 | 1013.2 |
| 20260505085005 | 15 | 360 | 8.0 | 19.3 | 0.08 | 0.53 | 0.20 | 90 | 1013.4 |
| 20260505084505 | 15 | 360 | 6.4 | 16.1 | 0.10 | 0.53 | 0.20 | 90 | 1013.5 |
| 20260505084004 | 15 | 360 | 8.0 | 16.1 | 0.13 | 0.53 | 0.20 | 90 | 1013.5 |
| 20260505083510 | 15 | 360 | 6.4 | 14.5 | 0.13 | 0.53 | 0.20 | 90 | 1013.7 |
| 20260505083008 | 15 | 360 | 8.0 | 14.5 | 0.15 | 0.53 | 0.20 | 90 | 1014.1 |
| 20260505082505 | 15 | 360 | 6.4 | 14.5 | 0.13 | 0.51 | 0.18 | 91 | 1014.4 |
| 20260505082006 | 15 | 360 | 3.2 | 12.9 | 0.15 | 0.51 | 0.18 | 91 | 1014.7 |
| 20260505081508 | 15 | 360 | 4.8 | 12.9 | 0.15 | 0.51 | 0.18 | 91 | 1014.7 |
| 20260505081005 | 15 | 360 | 4.8 | 9.7 | 0.13 | 0.48 | 0.15 | 90 | 1014.8 |
| 20260505080504 | 15 | 360 | 3.2 | 8.0 | 0.13 | 0.48 | 0.15 | 90 | 1014.9 |
| 20260505080004 | 15 | 360 | 1.6 | 9.7 | 0.15 | 0.48 | 0.15 | 90 | 1015.0 |
| 20260505075504 | 15 | 360 | 3.2 | 9.7 | 0.13 | 0.46 | 0.13 | 90 | 1015.1 |
| 20260505075004 | 15 | 360 | 4.8 | 9.7 | 0.13 | 0.46 | 0.13 | 90 | 1015.2 |
| 20260505074506 | 15 | 360 | 3.2 | 9.7 | 0.13 | 0.43 | 0.10 | 90 | 1015.3 |
| 20260505074005 | 15 | 360 | 0.0 | 9.7 | 0.10 | 0.41 | 0.08 | 90 | 1015.3 |
| 20260505073505 | 15 | 360 | 4.8 | 9.7 | 0.10 | 0.41 | 0.08 | 90 | 1015.4 |
| 20260505073005 | 15 | 360 | 1.6 | 8.0 | 0.10 | 0.38 | 0.05 | 90 | 1015.6 |
| 20260505072509 | 15 | 360 | 1.6 | 8.0 | 0.13 | 0.38 | 0.05 | 90 | 1015.4 |
| 20260505072004 | 15 | 360 | 1.6 | 6.4 | 0.13 | 0.36 | 0.03 | 90 | 1015.4 |
| 20260505071507 | 15 | 360 | 1.6 | 8.0 | 0.13 | 0.36 | 0.03 | 89 | 1015.4 |
| 20260505071007 | 15 | 360 | 3.2 | 8.0 | 0.15 | 0.36 | 0.03 | 89 | 1015.4 |
| 20260505070506 | 15 | 360 | 1.6 | 6.4 | 0.15 | 0.36 | 0.03 | 89 | 1015.3 |
| 20260505070005 | 15 | 360 | 1.6 | 6.4 | 0.15 | 0.33 | 0.00 | 89 | 1015.3 |
| 20260505065505 | 15 | 360 | 1.6 | 6.4 | 0.15 | 0.33 | 0.33 | 88 | 1015.2 |
| 20260505065005 | 15 | 360 | 1.6 | 6.4 | 0.15 | 0.33 | 0.33 | 88 | 1015.2 |
| 20260505064506 | 15 | 360 | 1.6 | 4.8 | 0.13 | 0.30 | 0.30 | 88 | 1015.3 |
| 20260505064005 | 15 | 360 | 0.0 | 4.8 | 0.15 | 0.30 | 0.30 | 88 | 1015.3 |
| 20260505063505 | 15 | 360 | 0.0 | 6.4 | 0.18 | 0.30 | 0.30 | 87 | 1015.1 |
| 20260505063006 | 15 | 360 | 0.0 | 6.4 | 0.15 | 0.28 | 0.28 | 87 | 1015.1 |
| 20260505062510 | 15 | 360 | 1.6 | 6.4 | 0.15 | 0.25 | 0.25 | 87 | 1015.1 |
| 20260505062008 | 15 | 360 | 0.0 | 8.0 | 0.13 | 0.23 | 0.23 | 86 | 1015.1 |
| 20260505061508 | 15 | 360 | 3.2 | 11.3 | 0.13 | 0.23 | 0.23 | 86 | 1015.2 |
| 20260505061006 | 15 | 360 | 4.8 | 11.3 | 0.10 | 0.20 | 0.20 | 86 | 1015.1 |
| 20260505060505 | 15 | 360 | 1.6 | 6.4 | 0.10 | 0.20 | 0.20 | 86 | 1015.2 |